[[{"header":{"parameterUnit":"m.s-1","parameterCategory":1,"la1":30.2991,"la2":30.254,"lo1":-89.0895,"lo2":-89.0444,"dy":0.0017,"dx":0.0017,"nx":28,"ny":28,"refTime":"2025-12-12T09:00:00:Z","depth":0,"parameterNumber":2,"parameterNumberName":"U-component_of_WINDS"},"data":[0,0,0,0,0,0,0,0,0,0,0,0,0,0,0,0,0,0,0,0,0,0,0,0,0,0,0,0,0,0,0,0,0,0,0,0,0,0,0,0,0,0,0,0,0,0,0,0,0,0,0,0,0,0,0,0,0,0,0.7474,0.7473,0,0.7454,0.7454,0.7454,0.7391,0.7389,0.7388,0.7386,0.7366,0.7367,0.7367,0,0,0,0,0,0,0,0,0,0,0,0,0,0.7458,0.7458,0.7474,0.7473,0.7473,0.7454,0.7454,0.7454,0.7391,0.7389,0.7387,0.7386,0.7366,0.7366,0.7367,0,0,0,0,0,0,0,0,0,0,0,0,0,0.7454,0.7459,0.7474,0.744,0.7436,0.7454,0.7454,0.7453,0.7391,0.7389,0.7387,0.7385,0.7365,0.7366,0.7368,0.7417,0,0,0.7371,0.7371,0,0,0,0,0,0,0,0,0.7454,0.7455,0.7445,0.7442,0.7438,0.7423,0.7441,0.7441,0.7392,0.7408,0.7386,0.7384,0.7386,0.7386,0.7387,0.7416,0.7415,0.7371,0.7372,0.7372,0.7373,0,0,0,0,0,0,0,0.7455,0.7455,0.7466,0.7445,0.7441,0.7426,0.7423,0.744,0.7409,0.7407,0.7402,0.7401,0.7384,0.7386,0.7386,0.7414,0.7371,0.7372,0.7373,0.7373,0.7487,0.7489,0,0,0,0,0,0,0.746,0.7456,0.7466,0.7465,0.7441,0.7428,0.7424,0.743,0.7409,0.7404,0.7403,0.7398,0.7385,0.7384,0.7385,0.7444,0.7372,0.7373,0.7374,0.7485,0.7487,0.749,0,0,0,0,0,0,0.746,0.7461,0.7467,0.7459,0.7459,0.743,0.7437,0.7431,0.7432,0.7406,0.74,0.741,0.7383,0.7383,0.741,0.7443,0.7374,0.7375,0.7482,0.7485,0.7489,0.7562,0,0,0,0,0,0,0.746,0.7462,0.748,0.746,0.746,0.7493,0.7438,0.7432,0.7434,0.7428,0.7411,0.7406,0.7381,0.7409,0.7411,0.7443,0.7376,0.7479,0.7483,0.7488,0.7557,0.7568,0.7577,0,0,0,0,0,0.7459,0.75,0.7481,0.7483,0.7482,0.7495,0.7495,0.7465,0.7437,0.7456,0.7439,0.7407,0.7438,0.7412,0.7414,0.7447,0.7477,0.7482,0.7487,0.7552,0.7566,0.7577,0,0,0,0,0,0,0.7523,0.7497,0.7475,0.7511,0.7506,0.7484,0.7507,0.748,0.7482,0.7476,0.744,0.7436,0.747,0.746,0.7432,0.7495,0.7452,0.7458,0.7501,0.7513,0.7523,0.7527,0.7377,0,0,0,0,0,0.7542,0.7555,0.753,0.7564,0.7563,0.7536,0.754,0.7518,0.7511,0.7509,0.7494,0.7489,0.7498,0.7504,0.751,0.7554,0.7551,0.7578,0.7588,0.7596,0.7603,0.7629,0.7642,0.7507,0.7507,0.7507,0,0,0.758,0.7567,0.7577,0.7577,0.7571,0.7586,0.7534,0.7551,0.7563,0.7511,0.7537,0.7526,0.7518,0.7555,0.757,0.7548,0.7639,0.7603,0.761,0.7612,0.7636,0.7649,0.7661,0.7511,0.751,0.751,0,0,0.7658,0.7648,0.7677,0.7672,0.7663,0.7645,0.7652,0.7635,0.7626,0.7652,0.7614,0.7627,0.7642,0.7639,0.7639,0.7719,0.7691,0.7722,0.7776,0.7802,0.7813,0.7823,0.7855,0.7867,0.7728,0.7728,0.7728,0,0.7706,0.7728,0.7695,0.7717,0.7719,0.7673,0.7704,0.77,0.7694,0.7697,0.7672,0.7693,0.7683,0.7721,0.7741,0.7741,0.775,0.7725,0.7814,0.7823,0.7832,0.7862,0.7874,0.7732,0.7731,0.7731,0.7731,0,0.779,0.7806,0.783,0.7828,0.7832,0.7858,0.783,0.7839,0.7817,0.7802,0.783,0.7817,0.7823,0.7829,0.7806,0.7864,0.7851,0.7821,0.7777,0.7849,0.7878,0.7889,0.7738,0.7736,0.7735,0.7734,0,0,0.7909,0.7889,0.7899,0.7899,0.7886,0.7898,0.7922,0.7928,0.7939,0.7935,0.7957,0.7972,0.7945,0.7945,0.7922,0.7945,0.8014,0.7911,0.7911,0.7935,0.8082,0.8108,0.8122,0.7994,0.7996,0.7997,0.8084,0,0.7986,0.8028,0.8,0.8047,0.8063,0.802,0.8042,0.8038,0.8024,0.8037,0.8021,0.8034,0.7995,0.7996,0.8016,0.8001,0.8044,0.7994,0.8016,0.8018,0.8024,0.8136,0.8163,0.8246,0.8094,0.8096,0.8097,0,0.8082,0.8086,0.8135,0.8123,0.8129,0.8149,0.8154,0.8165,0.816,0.8149,0.8151,0.8123,0.8148,0.8103,0.8138,0.8105,0.8112,0.8107,0.8109,0.8113,0.8065,0.8147,0.8271,0.8285,0.8114,0.8112,0.8111,0,0.817,0.8186,0.8219,0.8219,0.8205,0.8221,0.8215,0.8208,0.8214,0.8218,0.8223,0.8229,0.8233,0.8239,0.8215,0.8183,0.8255,0.8207,0.8249,0.825,0.8269,0.8269,0.8399,0.8266,0.8266,0.8266,0.8266,0,0.8261,0.8294,0.8259,0.8279,0.8315,0.8283,0.832,0.831,0.8304,0.8323,0.8285,0.8303,0.8267,0.8283,0.8263,0.8298,0.8299,0.8292,0.8288,0.8298,0.83,0.8305,0.8301,0.8269,0.8268,0.8268,0.8267,0,0.8366,0.8343,0.8377,0.8361,0.8358,0.8386,0.8373,0.8392,0.8376,0.8401,0.8404,0.838,0.8397,0.8372,0.8384,0.8371,0.8421,0.8405,0.8424,0.8421,0.8466,0.8464,0.8608,0.8628,0.8478,0.848,0.8481,0,0.8428,0.8453,0.844,0.8451,0.8449,0.8465,0.8472,0.8441,0.8451,0.8448,0.8469,0.8482,0.8491,0.852,0.8504,0.8514,0.8501,0.8551,0.8503,0.8514,0.8508,0.8509,0.8513,0.8562,0.8564,0.8566,0.8567,0,0.8542,0.853,0.8542,0.8552,0.8562,0.8567,0.8569,0.858,0.8548,0.856,0.8577,0.8585,0.86,0.8615,0.8622,0.8617,0.8589,0.8582,0.8593,0.8606,0.8618,0.8617,0.8456,0.8579,0.8578,0.8577,0.8576,0.8576,0.863,0.8652,0.8648,0.8664,0.8662,0.8667,0.8685,0.8673,0.8687,0.8697,0.8678,0.8701,0.8698,0.8704,0.8703,0.8721,0.87,0.8715,0.8719,0.8725,0.8734,0.8612,0.8722,0.8721,0.8721,0.8721,0.872,0,0.8746,0.8742,0.8757,0.8763,0.8776,0.8747,0.8749,0.8762,0.8783,0.8783,0.8794,0.8815,0.883,0.8816,0.8829,0.8847,0.8835,0.8852,0.8852,0.8853,0.875,0.8742,0.8862,0.8862,0.8862,0.8862,0.8862,0.8862,0.8809,0.8845,0.8833,0.887,0.8865,0.8889,0.8893,0.8897,0.8897,0.8924,0.8937,0.8927,0.8923,0.8935,0.8949,0.8944,0.8953,0.8976,0.8967,0.8873,0.8859,0.8846,0.8838,0.8977,0.8977,0.9069,0.907,0.907]},{"header":{"parameterUnit":"m.s-1","parameterCategory":1,"la1":30.2991,"la2":30.254,"lo1":-89.0895,"lo2":-89.0444,"dy":0.0017,"dx":0.0017,"nx":28,"ny":28,"refTime":"2025-12-12T09:00:00:Z","depth":0,"parameterNumber":3,"parameterNumberName":"V-component_of_WINDS"},"data":[0,0,0,0,0,0,0,0,0,0,0,0,0,0,0,0,0,0,0,0,0,0,0,0,0,0,0,0,0,0,0,0,0,0,0,0,0,0,0,0,0,0,0,0,0,0,0,0,0,0,0,0,0,0,0,0,0,0,-0.1764,-0.1762,0,-0.1611,-0.1609,-0.1607,-0.1526,-0.1526,-0.1526,-0.1526,-0.1359,-0.1355,-0.1351,0,0,0,0,0,0,0,0,0,0,0,0,0,-0.1975,-0.1972,-0.1764,-0.1762,-0.176,-0.1611,-0.1609,-0.1607,-0.1526,-0.1526,-0.1526,-0.1526,-0.1361,-0.1356,-0.135,0,0,0,0,0,0,0,0,0,0,0,0,0,-0.1859,-0.1971,-0.1764,-0.1702,-0.1695,-0.1612,-0.1609,-0.1606,-0.1526,-0.1526,-0.1526,-0.1526,-0.1362,-0.1356,-0.135,-0.1313,0,0,-0.133,-0.1327,0,0,0,0,0,0,0,0,-0.1866,-0.1851,-0.1713,-0.1706,-0.1698,-0.1588,-0.1622,-0.1508,-0.1526,-0.159,-0.1526,-0.1526,-0.1435,-0.1422,-0.1394,-0.1305,-0.1298,-0.1329,-0.1325,-0.1322,-0.1321,0,0,0,0,0,0,0,-0.1874,-0.1857,-0.1703,-0.1711,-0.1702,-0.1678,-0.1662,-0.16,-0.1515,-0.1585,-0.1578,-0.1562,-0.143,-0.14,-0.1389,-0.1296,-0.1329,-0.1324,-0.132,-0.1317,-0.1167,-0.1167,0,0,0,0,0,0,-0.1893,-0.1865,-0.1708,-0.1698,-0.1784,-0.1675,-0.1656,-0.1623,-0.1515,-0.1499,-0.1562,-0.1559,-0.1411,-0.1397,-0.1383,-0.1332,-0.1323,-0.1316,-0.1313,-0.1167,-0.1167,-0.1167,0,0,0,0,0,0,-0.1898,-0.188,-0.1714,-0.178,-0.1757,-0.1672,-0.1635,-0.162,-0.159,-0.1499,-0.1482,-0.1548,-0.1411,-0.1392,-0.1331,-0.1325,-0.1313,-0.1308,-0.1167,-0.1167,-0.1167,-0.1231,0,0,0,0,0,0,-0.1905,-0.1883,-0.187,-0.178,-0.1754,-0.1669,-0.1635,-0.1617,-0.158,-0.1574,-0.1481,-0.1465,-0.1409,-0.1341,-0.1325,-0.1316,-0.1303,-0.1167,-0.1167,-0.1167,-0.1229,-0.1233,-0.1237,0,0,0,0,0,-0.1913,-0.1892,-0.187,-0.1852,-0.1737,-0.1668,-0.1653,-0.1592,-0.158,-0.1565,-0.1506,-0.1468,-0.1329,-0.1336,-0.1317,-0.1306,-0.1167,-0.1167,-0.1167,-0.1227,-0.1232,-0.1237,0,0,0,0,0,0,-0.198,-0.188,-0.1854,-0.1805,-0.1746,-0.1655,-0.1635,-0.1599,-0.154,-0.1537,-0.1461,-0.144,-0.1386,-0.1339,-0.1349,-0.1263,-0.1244,-0.124,-0.1296,-0.13,-0.1304,-0.1316,-0.1297,0,0,0,0,0,-0.1991,-0.1946,-0.1859,-0.1824,-0.1796,-0.1721,-0.1688,-0.1647,-0.1582,-0.1556,-0.1492,-0.1428,-0.1369,-0.1332,-0.1273,-0.1222,-0.1199,-0.1204,-0.1208,-0.1212,-0.1209,-0.1176,-0.1177,-0.1166,-0.1166,-0.1166,0,0,-0.2009,-0.1948,-0.1925,-0.1836,-0.1786,-0.1739,-0.17,-0.1652,-0.1615,-0.1547,-0.1487,-0.1438,-0.136,-0.1304,-0.1276,-0.1263,-0.1207,-0.1212,-0.1215,-0.121,-0.1176,-0.1178,-0.1179,-0.1166,-0.1166,-0.1166,0,0,-0.2019,-0.197,-0.1935,-0.1886,-0.1812,-0.1762,-0.1754,-0.1668,-0.1634,-0.1573,-0.152,-0.1473,-0.1375,-0.1321,-0.1281,-0.1271,-0.1232,-0.1253,-0.1273,-0.1242,-0.1243,-0.1243,-0.1238,-0.1238,-0.1251,-0.1251,-0.1251,0,-0.2051,-0.1981,-0.1921,-0.1876,-0.1837,-0.1777,-0.1739,-0.1693,-0.1602,-0.1575,-0.1563,-0.1438,-0.1381,-0.1311,-0.1309,-0.1279,-0.1264,-0.1264,-0.1248,-0.1248,-0.1247,-0.1242,-0.124,-0.1254,-0.1254,-0.1253,-0.1253,0,-0.2023,-0.1976,-0.1956,-0.1873,-0.1832,-0.1791,-0.1721,-0.1686,-0.1647,-0.1598,-0.1535,-0.1465,-0.1391,-0.1371,-0.1331,-0.1294,-0.1289,-0.1264,-0.1242,-0.1253,-0.1246,-0.1243,-0.1258,-0.1257,-0.1256,-0.1256,0,0,-0.2072,-0.1957,-0.1951,-0.1912,-0.1826,-0.1786,-0.174,-0.1671,-0.1642,-0.158,-0.1538,-0.1456,-0.1433,-0.1387,-0.1341,-0.1314,-0.1309,-0.1292,-0.1289,-0.1297,-0.1261,-0.1281,-0.128,-0.1283,-0.1282,-0.1282,-0.1268,0,-0.2069,-0.199,-0.1933,-0.1874,-0.1827,-0.1769,-0.1729,-0.1669,-0.1621,-0.1572,-0.1517,-0.146,-0.1433,-0.1406,-0.1377,-0.1316,-0.1301,-0.1316,-0.124,-0.1238,-0.1262,-0.1276,-0.1296,-0.1286,-0.1265,-0.1264,-0.1264,0,-0.2056,-0.2,-0.1937,-0.1855,-0.1834,-0.1799,-0.1731,-0.1685,-0.1615,-0.1582,-0.1532,-0.1485,-0.1431,-0.1415,-0.1337,-0.1349,-0.1314,-0.128,-0.1278,-0.1268,-0.1252,-0.1265,-0.1282,-0.128,-0.1259,-0.126,-0.126,0,-0.2097,-0.2005,-0.1956,-0.1925,-0.1828,-0.1805,-0.1763,-0.1693,-0.1655,-0.1593,-0.1567,-0.1499,-0.1461,-0.1407,-0.1342,-0.1337,-0.1271,-0.1249,-0.1239,-0.124,-0.1227,-0.1229,-0.1237,-0.1206,-0.1206,-0.1206,-0.1206,0,-0.2099,-0.2063,-0.1973,-0.1943,-0.1899,-0.1833,-0.179,-0.1742,-0.1681,-0.1637,-0.158,-0.154,-0.1457,-0.1405,-0.1353,-0.1296,-0.1279,-0.1248,-0.1234,-0.1253,-0.1257,-0.1228,-0.1227,-0.1206,-0.1206,-0.1206,-0.1206,0,-0.2138,-0.2077,-0.2019,-0.1933,-0.191,-0.1881,-0.1806,-0.1772,-0.1721,-0.1666,-0.1649,-0.1568,-0.1504,-0.1434,-0.1345,-0.131,-0.1255,-0.1236,-0.128,-0.1272,-0.1265,-0.1267,-0.1256,-0.125,-0.1224,-0.1224,-0.1225,0,-0.2143,-0.2114,-0.2026,-0.1995,-0.1955,-0.1905,-0.1866,-0.1799,-0.176,-0.1678,-0.1654,-0.1586,-0.1529,-0.1428,-0.1359,-0.129,-0.1268,-0.1269,-0.1257,-0.1276,-0.1267,-0.1269,-0.1265,-0.1273,-0.1273,-0.1274,-0.1274,0,-0.2159,-0.2131,-0.208,-0.2017,-0.1974,-0.192,-0.1864,-0.1841,-0.1761,-0.172,-0.1656,-0.1612,-0.1523,-0.1455,-0.1378,-0.133,-0.1288,-0.1279,-0.1272,-0.129,-0.1317,-0.1301,-0.1289,-0.1279,-0.1278,-0.1278,-0.1278,-0.1278,-0.218,-0.2152,-0.2086,-0.203,-0.1981,-0.193,-0.1895,-0.184,-0.1787,-0.1712,-0.1674,-0.161,-0.1538,-0.1431,-0.1384,-0.133,-0.1316,-0.1308,-0.1305,-0.1304,-0.1308,-0.1327,-0.1315,-0.1315,-0.1315,-0.1314,-0.1314,0,-0.2193,-0.2148,-0.2097,-0.2023,-0.1978,-0.1946,-0.1882,-0.1846,-0.1791,-0.173,-0.1675,-0.16,-0.1534,-0.146,-0.1389,-0.136,-0.1338,-0.1343,-0.1344,-0.1333,-0.1325,-0.1337,-0.1362,-0.1362,-0.1362,-0.1362,-0.1362,-0.1362,-0.2194,-0.2144,-0.2108,-0.2031,-0.1985,-0.1925,-0.1891,-0.1842,-0.1793,-0.1713,-0.166,-0.1613,-0.1545,-0.1469,-0.1405,-0.1385,-0.136,-0.1371,-0.1344,-0.1338,-0.1334,-0.133,-0.1341,-0.1366,-0.1366,-0.1357,-0.1357,-0.1357]}]]